STARLINK-4409 (53203 NORAD) Tracking and Keplerian Element Data

This shows tracking and keplerian element data for the satellite.

Feedback or suggestion? Click here.




ElementValue
Catalog53203
NameSTARLINK-4409
Epoch Orbit1072
Epoch Day270.16231476
Epoch Year2022
RAAN329.9851
Inclination97.6537
Eccentricity0.0002435
Argument of Perigee135.46
Mean Anonmoly224.6821
Mean Motion15.01261235
Decay Rate-9.38E-06
L11 53203U 22084Q 22270.16231476 -.00000938 00000+0 -68401-4 0 9996
L22 53203 97.6537 329.9851 0002435 135.4600 224.6821 15.01261235 10723

Live tracking and technical data element details for STARLINK-4409 (NORAD 53203). STARLINK-4409 can be tracked NOW for your location showing map with azimuth and elevation plus other details from your city location.

Track the satellite on the map from your city or location and see movement details for azimuth, elevation, latitude, longitude, range, height, and movement on the map or in text.







IsCatalogInMostPopularTable: catalog: 53203, numindb: 3
Update: records affected: 1



GetName: 53203 STARLINK-4409

Hit Count: updated at: Fri, 30 Sep 2022 03:50:01 GMT